owner,sensor,date,latitude,longitude,vertical_datum,mass_concentration_of_oxygen_in_sea_water,qcFlag 
NERRS,ioos:station:NOAA.NERRS:rkblhwq:1,2017-08-08T16:45:00Z,26.0257,-81.7332,1.61,5.3,1111122 
NERRS,ioos:station:NOAA.NERRS:rkblhwq:1,2017-08-08T17:45:00Z,26.0257,-81.7332,1.68,5.7,1111122 
NERRS,ioos:station:NOAA.NERRS:rkblhwq:1,2017-08-08T18:45:00Z,26.0257,-81.7332,1.72,5.9,1111122 
NERRS,ioos:station:NOAA.NERRS:rkblhwq:1,2017-08-08T19:45:00Z,26.0257,-81.7332,1.69,5.8,1111122 
NERRS,ioos:station:NOAA.NERRS:rkblhwq:1,2017-08-08T20:45:00Z,26.0257,-81.7332,1.58,5.6,1111122 
NERRS,ioos:station:NOAA.NERRS:rkblhwq:1,2017-08-08T21:45:00Z,26.0257,-81.7332,1.44,5.2,1111122 
NERRS,ioos:station:NOAA.NERRS:rkblhwq:1,2017-08-08T22:45:00Z,26.0257,-81.7332,1.26,5.0,1111122 
NERRS,ioos:station:NOAA.NERRS:rkblhwq:1,2017-08-08T23:45:00Z,26.0257,-81.7332,1.08,5.0,1111122 
NERRS,ioos:station:NOAA.NERRS:rkblhwq:1,2017-08-09T00:45:00Z,26.0257,-81.7332,0.93,4.7,1111122 
NERRS,ioos:station:NOAA.NERRS:rkblhwq:1,2017-08-09T01:45:00Z,26.0257,-81.7332,0.84,4.2,1111122 
NERRS,ioos:station:NOAA.NERRS:rkblhwq:1,2017-08-09T02:45:00Z,26.0257,-81.7332,0.93,4.7,1111122 
NERRS,ioos:station:NOAA.NERRS:rkblhwq:1,2017-08-09T03:45:00Z,26.0257,-81.7332,1.1,4.8,1111122 
NERRS,ioos:station:NOAA.NERRS:rkblhwq:1,2017-08-09T04:45:00Z,26.0257,-81.7332,1.26,4.9,1111122 
NERRS,ioos:station:NOAA.NERRS:rkblhwq:1,2017-08-09T05:45:00Z,26.0257,-81.7332,1.4,4.9,1111122 
NERRS,ioos:station:NOAA.NERRS:rkblhwq:1,2017-08-09T06:45:00Z,26.0257,-81.7332,1.52,4.9,1111122 
NERRS,ioos:station:NOAA.NERRS:rkblhwq:1,2017-08-09T07:45:00Z,26.0257,-81.7332,1.57,4.5,1111122 
NERRS,ioos:station:NOAA.NERRS:rkblhwq:1,2017-08-09T08:45:00Z,26.0257,-81.7332,1.51,4.3,1111122 
NERRS,ioos:station:NOAA.NERRS:rkblhwq:1,2017-08-09T09:45:00Z,26.0257,-81.7332,1.39,4.3,1111122 
NERRS,ioos:station:NOAA.NERRS:rkblhwq:1,2017-08-09T10:45:00Z,26.0257,-81.7332,1.27,4.3,1111122 
NERRS,ioos:station:NOAA.NERRS:rkblhwq:1,2017-08-09T11:45:00Z,26.0257,-81.7332,1.17,4.1,1111122 
NERRS,ioos:station:NOAA.NERRS:rkblhwq:1,2017-08-09T12:45:00Z,26.0257,-81.7332,1.09,3.9,1111122 
NERRS,ioos:station:NOAA.NERRS:rkblhwq:1,2017-08-09T13:45:00Z,26.0257,-81.7332,1.09,4.0,1111122 
NERRS,ioos:station:NOAA.NERRS:rkblhwq:1,2017-08-09T14:45:00Z,26.0257,-81.7332,1.19,4.6,1111122 
NERRS,ioos:station:NOAA.NERRS:rkblhwq:1,2017-08-09T15:45:00Z,26.0257,-81.7332,1.35,4.9,1111122 
NERRS,ioos:station:NOAA.NERRS:rkblhwq:1,2017-08-09T22:45:00Z,26.0257,-81.7332,1.33,5.1,1111122 
NERRS,ioos:station:NOAA.NERRS:rkblhwq:1,2017-08-09T23:45:00Z,26.0257,-81.7332,1.15,5.0,1111122 
NERRS,ioos:station:NOAA.NERRS:rkblhwq:1,2017-08-10T00:45:00Z,26.0257,-81.7332,0.99,5.0,1111122 
NERRS,ioos:station:NOAA.NERRS:rkblhwq:1,2017-08-10T01:45:00Z,26.0257,-81.7332,0.87,4.6,1111122 
NERRS,ioos:station:NOAA.NERRS:rkblhwq:1,2017-08-10T02:45:00Z,26.0257,-81.7332,0.86,4.6,1111122 
NERRS,ioos:station:NOAA.NERRS:rkblhwq:1,2017-08-10T03:45:00Z,26.0257,-81.7332,0.99,4.8,1111122 
NERRS,ioos:station:NOAA.NERRS:rkblhwq:1,2017-08-10T04:45:00Z,26.0257,-81.7332,1.13,4.8,1111122 
NERRS,ioos:station:NOAA.NERRS:rkblhwq:1,2017-08-10T05:45:00Z,26.0257,-81.7332,1.3,4.9,1111122 
NERRS,ioos:station:NOAA.NERRS:rkblhwq:1,2017-08-10T06:45:00Z,26.0257,-81.7332,1.44,4.9,1111122 
NERRS,ioos:station:NOAA.NERRS:rkblhwq:1,2017-08-10T07:45:00Z,26.0257,-81.7332,1.55,4.6,1111122 
NERRS,ioos:station:NOAA.NERRS:rkblhwq:1,2017-08-10T08:45:00Z,26.0257,-81.7332,1.55,4.1,1111122 
NERRS,ioos:station:NOAA.NERRS:rkblhwq:1,2017-08-10T09:45:00Z,26.0257,-81.7332,1.45,4.4,1111122 
NERRS,ioos:station:NOAA.NERRS:rkblhwq:1,2017-08-10T10:45:00Z,26.0257,-81.7332,1.32,4.1,1111122 
NERRS,ioos:station:NOAA.NERRS:rkblhwq:1,2017-08-10T11:45:00Z,26.0257,-81.7332,1.19,4.2,1111122 
NERRS,ioos:station:NOAA.NERRS:rkblhwq:1,2017-08-10T12:45:00Z,26.0257,-81.7332,1.07,4.1,1111122 
NERRS,ioos:station:NOAA.NERRS:rkblhwq:1,2017-08-10T13:45:00Z,26.0257,-81.7332,1.0,4.0,1111122 
NERRS,ioos:station:NOAA.NERRS:rkblhwq:1,2017-08-10T14:45:00Z,26.0257,-81.7332,1.06,3.5,1111122 
NERRS,ioos:station:NOAA.NERRS:rkblhwq:1,2017-08-10T15:45:00Z,26.0257,-81.7332,1.2,5.0,1111122 
NERRS,ioos:station:NOAA.NERRS:rkblhwq:1,2017-08-10T16:45:00Z,26.0257,-81.7332,1.35,4.9,1111122 
NERRS,ioos:station:NOAA.NERRS:rkblhwq:1,2017-08-10T17:45:00Z,26.0257,-81.7332,1.49,5.4,1111122 
NERRS,ioos:station:NOAA.NERRS:rkblhwq:1,2017-08-10T18:45:00Z,26.0257,-81.7332,1.6,5.5,1111122 
NERRS,ioos:station:NOAA.NERRS:rkblhwq:1,2017-08-10T19:45:00Z,26.0257,-81.7332,1.66,5.6,1111122 
NERRS,ioos:station:NOAA.NERRS:rkblhwq:1,2017-08-10T20:45:00Z,26.0257,-81.7332,1.64,5.1,1111122 
NERRS,ioos:station:NOAA.NERRS:rkblhwq:1,2017-08-10T21:45:00Z,26.0257,-81.7332,1.52,5.6,1111122 
NERRS,ioos:station:NOAA.NERRS:rkblhwq:1,2017-08-10T22:45:00Z,26.0257,-81.7332,1.36,4.9,1111122 
NERRS,ioos:station:NOAA.NERRS:rkblhwq:1,2017-08-10T23:45:00Z,26.0257,-81.7332,1.2,4.9,1111122 
NERRS,ioos:station:NOAA.NERRS:rkblhwq:1,2017-08-11T00:45:00Z,26.0257,-81.7332,1.04,5.0,1111122 
NERRS,ioos:station:NOAA.NERRS:rkblhwq:1,2017-08-11T01:45:00Z,26.0257,-81.7332,0.92,5.1,1111122 
NERRS,ioos:station:NOAA.NERRS:rkblhwq:1,2017-08-11T02:45:00Z,26.0257,-81.7332,0.82,5.0,1111122 
NERRS,ioos:station:NOAA.NERRS:rkblhwq:1,2017-08-11T03:45:00Z,26.0257,-81.7332,0.86,4.6,1111122 
NERRS,ioos:station:NOAA.NERRS:rkblhwq:1,2017-08-11T04:45:00Z,26.0257,-81.7332,1.0,4.8,1111122 
NERRS,ioos:station:NOAA.NERRS:rkblhwq:1,2017-08-11T05:45:00Z,26.0257,-81.7332,1.16,4.9,1111122 
NERRS,ioos:station:NOAA.NERRS:rkblhwq:1,2017-08-11T06:45:00Z,26.0257,-81.7332,1.34,4.8,1111122 
NERRS,ioos:station:NOAA.NERRS:rkblhwq:1,2017-08-11T07:45:00Z,26.0257,-81.7332,1.49,4.8,1111122 
NERRS,ioos:station:NOAA.NERRS:rkblhwq:1,2017-08-11T08:45:00Z,26.0257,-81.7332,1.58,4.6,1111122 
NERRS,ioos:station:NOAA.NERRS:rkblhwq:1,2017-08-11T09:45:00Z,26.0257,-81.7332,1.52,4.4,1111122 
NERRS,ioos:station:NOAA.NERRS:rkblhwq:1,2017-08-11T10:45:00Z,26.0257,-81.7332,1.4,4.4,1111122 
NERRS,ioos:station:NOAA.NERRS:rkblhwq:1,2017-08-11T11:45:00Z,26.0257,-81.7332,1.26,4.2,1111122 
NERRS,ioos:station:NOAA.NERRS:rkblhwq:1,2017-08-11T12:45:00Z,26.0257,-81.7332,1.12,4.0,1111122 
NERRS,ioos:station:NOAA.NERRS:rkblhwq:1,2017-08-11T13:45:00Z,26.0257,-81.7332,0.99,3.9,1111122 
NERRS,ioos:station:NOAA.NERRS:rkblhwq:1,2017-08-11T14:45:00Z,26.0257,-81.7332,0.94,3.7,1111122 
NERRS,ioos:station:NOAA.NERRS:rkblhwq:1,2017-08-11T15:45:00Z,26.0257,-81.7332,1.03,4.4,1111122 
NERRS,ioos:station:NOAA.NERRS:rkblhwq:1,2017-08-11T16:45:00Z,26.0257,-81.7332,1.17,5.3,1111122 
NERRS,ioos:station:NOAA.NERRS:rkblhwq:1,2017-08-11T17:45:00Z,26.0257,-81.7332,1.3,5.6,1111122 
NERRS,ioos:station:NOAA.NERRS:rkblhwq:1,2017-08-11T18:45:00Z,26.0257,-81.7332,1.44,6.3,1111122 
NERRS,ioos:station:NOAA.NERRS:rkblhwq:1,2017-08-11T19:45:00Z,26.0257,-81.7332,1.55,6.6,1111122 
NERRS,ioos:station:NOAA.NERRS:rkblhwq:1,2017-08-11T20:45:00Z,26.0257,-81.7332,1.62,7.0,1111122 
NERRS,ioos:station:NOAA.NERRS:rkblhwq:1,2017-08-11T21:45:00Z,26.0257,-81.7332,1.57,6.5,1111122 
NERRS,ioos:station:NOAA.NERRS:rkblhwq:1,2017-08-11T22:45:00Z,26.0257,-81.7332,1.45,6.2,1111122 
NERRS,ioos:station:NOAA.NERRS:rkblhwq:1,2017-08-11T23:45:00Z,26.0257,-81.7332,1.29,5.6,1111122 
NERRS,ioos:station:NOAA.NERRS:rkblhwq:1,2017-08-12T00:45:00Z,26.0257,-81.7332,1.13,5.9,1111122 
NERRS,ioos:station:NOAA.NERRS:rkblhwq:1,2017-08-12T01:45:00Z,26.0257,-81.7332,0.99,5.8,1111122 
NERRS,ioos:station:NOAA.NERRS:rkblhwq:1,2017-08-12T02:45:00Z,26.0257,-81.7332,0.86,5.4,1111122 
NERRS,ioos:station:NOAA.NERRS:rkblhwq:1,2017-08-12T03:45:00Z,26.0257,-81.7332,0.81,5.4,1111122 
NERRS,ioos:station:NOAA.NERRS:rkblhwq:1,2017-08-12T04:45:00Z,26.0257,-81.7332,0.92,5.0,1111122 
NERRS,ioos:station:NOAA.NERRS:rkblhwq:1,2017-08-12T05:45:00Z,26.0257,-81.7332,1.07,5.0,1111122 
NERRS,ioos:station:NOAA.NERRS:rkblhwq:1,2017-08-12T06:45:00Z,26.0257,-81.7332,1.23,5.0,1111122 
NERRS,ioos:station:NOAA.NERRS:rkblhwq:1,2017-08-12T07:45:00Z,26.0257,-81.7332,1.39,5.0,1111122 
NERRS,ioos:station:NOAA.NERRS:rkblhwq:1,2017-08-12T08:45:00Z,26.0257,-81.7332,1.51,4.8,1111122 
NERRS,ioos:station:NOAA.NERRS:rkblhwq:1,2017-08-12T09:45:00Z,26.0257,-81.7332,1.56,4.2,1111122 
NERRS,ioos:station:NOAA.NERRS:rkblhwq:1,2017-08-12T10:45:00Z,26.0257,-81.7332,1.47,4.6,1111122 
NERRS,ioos:station:NOAA.NERRS:rkblhwq:1,2017-08-12T11:45:00Z,26.0257,-81.7332,1.33,4.3,1111122 
NERRS,ioos:station:NOAA.NERRS:rkblhwq:1,2017-08-12T12:45:00Z,26.0257,-81.7332,1.19,4.5,1111122 
NERRS,ioos:station:NOAA.NERRS:rkblhwq:1,2017-08-12T13:45:00Z,26.0257,-81.7332,1.06,4.3,1111122 
NERRS,ioos:station:NOAA.NERRS:rkblhwq:1,2017-08-12T14:45:00Z,26.0257,-81.7332,0.94,4.4,1111122 
NERRS,ioos:station:NOAA.NERRS:rkblhwq:1,2017-08-12T15:45:00Z,26.0257,-81.7332,0.92,3.8,1111122 
NERRS,ioos:station:NOAA.NERRS:rkblhwq:1,2017-08-12T16:45:00Z,26.0257,-81.7332,1.02,5.4,1111122 
NERRS,ioos:station:NOAA.NERRS:rkblhwq:1,2017-08-12T17:45:00Z,26.0257,-81.7332,1.15,6.3,1111122 
NERRS,ioos:station:NOAA.NERRS:rkblhwq:1,2017-08-12T18:45:00Z,26.0257,-81.7332,1.29,6.6,1111122 
NERRS,ioos:station:NOAA.NERRS:rkblhwq:1,2017-08-12T19:45:00Z,26.0257,-81.7332,1.41,7.1,1111122 
NERRS,ioos:station:NOAA.NERRS:rkblhwq:1,2017-08-12T20:45:00Z,26.0257,-81.7332,1.51,7.2,1111122 
NERRS,ioos:station:NOAA.NERRS:rkblhwq:1,2017-08-12T21:45:00Z,26.0257,-81.7332,1.56,7.0,1111122 
NERRS,ioos:station:NOAA.NERRS:rkblhwq:1,2017-08-12T22:45:00Z,26.0257,-81.7332,1.51,7.0,1111122 
NERRS,ioos:station:NOAA.NERRS:rkblhwq:1,2017-08-12T23:45:00Z,26.0257,-81.7332,1.39,6.9,1111122 
NERRS,ioos:station:NOAA.NERRS:rkblhwq:1,2017-08-13T00:45:00Z,26.0257,-81.7332,1.25,6.1,1111122 
NERRS,ioos:station:NOAA.NERRS:rkblhwq:1,2017-08-13T01:45:00Z,26.0257,-81.7332,1.11,6.6,1111122 
NERRS,ioos:station:NOAA.NERRS:rkblhwq:1,2017-08-13T02:45:00Z,26.0257,-81.7332,0.99,6.6,1111122 
NERRS,ioos:station:NOAA.NERRS:rkblhwq:1,2017-08-13T03:45:00Z,26.0257,-81.7332,0.91,6.5,1111122 
NERRS,ioos:station:NOAA.NERRS:rkblhwq:1,2017-08-13T04:45:00Z,26.0257,-81.7332,0.95,5.4,1111122 
NERRS,ioos:station:NOAA.NERRS:rkblhwq:1,2017-08-13T05:45:00Z,26.0257,-81.7332,1.07,6.0,1111122 
NERRS,ioos:station:NOAA.NERRS:rkblhwq:1,2017-08-13T06:45:00Z,26.0257,-81.7332,1.21,5.5,1111122 
NERRS,ioos:station:NOAA.NERRS:rkblhwq:1,2017-08-13T07:45:00Z,26.0257,-81.7332,1.34,5.3,1111122 
NERRS,ioos:station:NOAA.NERRS:rkblhwq:1,2017-08-13T08:45:00Z,26.0257,-81.7332,1.46,5.1,1111122 
NERRS,ioos:station:NOAA.NERRS:rkblhwq:1,2017-08-13T09:45:00Z,26.0257,-81.7332,1.55,4.9,1111122 
NERRS,ioos:station:NOAA.NERRS:rkblhwq:1,2017-08-13T10:45:00Z,26.0257,-81.7332,1.55,4.2,1111122 
NERRS,ioos:station:NOAA.NERRS:rkblhwq:1,2017-08-13T11:45:00Z,26.0257,-81.7332,1.45,4.7,1111122 
NERRS,ioos:station:NOAA.NERRS:rkblhwq:1,2017-08-13T12:45:00Z,26.0257,-81.7332,1.33,4.5,1111122 
NERRS,ioos:station:NOAA.NERRS:rkblhwq:1,2017-08-13T13:45:00Z,26.0257,-81.7332,1.18,4.5,1111122 
NERRS,ioos:station:NOAA.NERRS:rkblhwq:1,2017-08-13T14:45:00Z,26.0257,-81.7332,1.04,4.3,1111122 
NERRS,ioos:station:NOAA.NERRS:rkblhwq:1,2017-08-13T15:45:00Z,26.0257,-81.7332,0.93,4.9,1111122 
NERRS,ioos:station:NOAA.NERRS:rkblhwq:1,2017-08-13T16:45:00Z,26.0257,-81.7332,0.87,5.5,1111122 
NERRS,ioos:station:NOAA.NERRS:rkblhwq:1,2017-08-13T17:45:00Z,26.0257,-81.7332,0.94,6.0,1111122 
NERRS,ioos:station:NOAA.NERRS:rkblhwq:1,2017-08-13T18:45:00Z,26.0257,-81.7332,1.08,6.8,1111122 
NERRS,ioos:station:NOAA.NERRS:rkblhwq:1,2017-08-13T19:45:00Z,26.0257,-81.7332,1.21,7.0,1111122 
NERRS,ioos:station:NOAA.NERRS:rkblhwq:1,2017-08-13T20:45:00Z,26.0257,-81.7332,1.34,7.1,1111122 
NERRS,ioos:station:NOAA.NERRS:rkblhwq:1,2017-08-13T21:45:00Z,26.0257,-81.7332,1.42,7.0,1111122 
NERRS,ioos:station:NOAA.NERRS:rkblhwq:1,2017-08-13T22:45:00Z,26.0257,-81.7332,1.47,6.5,1111122 
NERRS,ioos:station:NOAA.NERRS:rkblhwq:1,2017-08-13T23:45:00Z,26.0257,-81.7332,1.42,6.8,1111122 
NERRS,ioos:station:NOAA.NERRS:rkblhwq:1,2017-08-14T00:45:00Z,26.0257,-81.7332,1.33,6.7,1111122 
NERRS,ioos:station:NOAA.NERRS:rkblhwq:1,2017-08-14T01:45:00Z,26.0257,-81.7332,1.21,7.2,1111122 
NERRS,ioos:station:NOAA.NERRS:rkblhwq:1,2017-08-14T02:45:00Z,26.0257,-81.7332,1.09,6.3,1111122 
NERRS,ioos:station:NOAA.NERRS:rkblhwq:1,2017-08-14T03:45:00Z,26.0257,-81.7332,1.0,5.9,1111122 
NERRS,ioos:station:NOAA.NERRS:rkblhwq:1,2017-08-14T04:45:00Z,26.0257,-81.7332,0.94,6.0,1111122 
NERRS,ioos:station:NOAA.NERRS:rkblhwq:1,2017-08-14T05:45:00Z,26.0257,-81.7332,0.99,5.2,1111122 
NERRS,ioos:station:NOAA.NERRS:rkblhwq:1,2017-08-14T06:45:00Z,26.0257,-81.7332,1.11,5.8,1111122 
NERRS,ioos:station:NOAA.NERRS:rkblhwq:1,2017-08-14T07:45:00Z,26.0257,-81.7332,1.25,5.4,1111122 
NERRS,ioos:station:NOAA.NERRS:rkblhwq:1,2017-08-14T08:45:00Z,26.0257,-81.7332,1.37,5.2,1111122 
NERRS,ioos:station:NOAA.NERRS:rkblhwq:1,2017-08-14T09:45:00Z,26.0257,-81.7332,1.49,5.0,1111122 
NERRS,ioos:station:NOAA.NERRS:rkblhwq:1,2017-08-14T10:45:00Z,26.0257,-81.7332,1.56,4.6,1111122 
NERRS,ioos:station:NOAA.NERRS:rkblhwq:1,2017-08-14T11:45:00Z,26.0257,-81.7332,1.54,4.3,1111122 
NERRS,ioos:station:NOAA.NERRS:rkblhwq:1,2017-08-14T12:45:00Z,26.0257,-81.7332,1.43,4.4,1111122 
NERRS,ioos:station:NOAA.NERRS:rkblhwq:1,2017-08-14T13:45:00Z,26.0257,-81.7332,1.3,4.4,1111122 
NERRS,ioos:station:NOAA.NERRS:rkblhwq:1,2017-08-14T14:45:00Z,26.0257,-81.7332,1.16,4.5,1111122 
NERRS,ioos:station:NOAA.NERRS:rkblhwq:1,2017-08-14T15:45:00Z,26.0257,-81.7332,1.02,4.6,1111122 
NERRS,ioos:station:NOAA.NERRS:rkblhwq:1,2017-08-14T16:45:00Z,26.0257,-81.7332,0.89,5.1,1111122 
NERRS,ioos:station:NOAA.NERRS:rkblhwq:1,2017-08-14T17:45:00Z,26.0257,-81.7332,0.82,6.4,1111122 
NERRS,ioos:station:NOAA.NERRS:rkblhwq:1,2017-08-14T18:45:00Z,26.0257,-81.7332,0.87,6.4,1111122 
NERRS,ioos:station:NOAA.NERRS:rkblhwq:1,2017-08-14T19:45:00Z,26.0257,-81.7332,0.98,7.1,1111122 
NERRS,ioos:station:NOAA.NERRS:rkblhwq:1,2017-08-14T20:45:00Z,26.0257,-81.7332,1.1,7.3,1111122 
NERRS,ioos:station:NOAA.NERRS:rkblhwq:1,2017-08-14T21:45:00Z,26.0257,-81.7332,1.23,7.4,1111122 
NERRS,ioos:station:NOAA.NERRS:rkblhwq:1,2017-08-14T22:45:00Z,26.0257,-81.7332,1.34,7.4,1111122 
NERRS,ioos:station:NOAA.NERRS:rkblhwq:1,2017-08-14T23:45:00Z,26.0257,-81.7332,1.41,7.0,1111122 
NERRS,ioos:station:NOAA.NERRS:rkblhwq:1,2017-08-15T00:45:00Z,26.0257,-81.7332,1.38,7.0,1111122 
NERRS,ioos:station:NOAA.NERRS:rkblhwq:1,2017-08-15T01:45:00Z,26.0257,-81.7332,1.28,6.7,1111122 
NERRS,ioos:station:NOAA.NERRS:rkblhwq:1,2017-08-15T02:45:00Z,26.0257,-81.7332,1.19,7.0,1111122 
NERRS,ioos:station:NOAA.NERRS:rkblhwq:1,2017-08-15T03:45:00Z,26.0257,-81.7332,1.11,6.7,1111122 
NERRS,ioos:station:NOAA.NERRS:rkblhwq:1,2017-08-15T04:45:00Z,26.0257,-81.7332,1.04,6.3,1111122 
NERRS,ioos:station:NOAA.NERRS:rkblhwq:1,2017-08-15T05:45:00Z,26.0257,-81.7332,1.02,5.6,1111122 
NERRS,ioos:station:NOAA.NERRS:rkblhwq:1,2017-08-15T06:45:00Z,26.0257,-81.7332,1.07,5.6,1111122 
NERRS,ioos:station:NOAA.NERRS:rkblhwq:1,2017-08-15T07:45:00Z,26.0257,-81.7332,1.2,5.8,1111122 
NERRS,ioos:station:NOAA.NERRS:rkblhwq:1,2017-08-15T08:45:00Z,26.0257,-81.7332,1.33,5.3,1111122 
NERRS,ioos:station:NOAA.NERRS:rkblhwq:1,2017-08-15T09:45:00Z,26.0257,-81.7332,1.43,5.0,1111122 
NERRS,ioos:station:NOAA.NERRS:rkblhwq:1,2017-08-15T10:45:00Z,26.0257,-81.7332,1.52,4.7,1111122 
NERRS,ioos:station:NOAA.NERRS:rkblhwq:1,2017-08-15T11:45:00Z,26.0257,-81.7332,1.59,4.4,1111122 
NERRS,ioos:station:NOAA.NERRS:rkblhwq:1,2017-08-15T12:45:00Z,26.0257,-81.7332,1.57,4.1,1111122 
NERRS,ioos:station:NOAA.NERRS:rkblhwq:1,2017-08-15T13:45:00Z,26.0257,-81.7332,1.47,4.3,1111122 
NERRS,ioos:station:NOAA.NERRS:rkblhwq:1,2017-08-15T14:45:00Z,26.0257,-81.7332,1.34,4.0,1111122 
NERRS,ioos:station:NOAA.NERRS:rkblhwq:1,2017-08-15T15:45:00Z,26.0257,-81.7332,1.19,4.7,1111122 
NERRS,ioos:station:NOAA.NERRS:rkblhwq:1,2017-08-15T16:45:00Z,26.0257,-81.7332,1.05,4.9,1111122 
NERRS,ioos:station:NOAA.NERRS:rkblhwq:1,2017-08-15T18:45:00Z,26.0257,-81.7332,0.82,7.2,1111122 
NERRS,ioos:station:NOAA.NERRS:rkblhwq:1,2017-08-15T19:45:00Z,26.0257,-81.7332,0.83,6.4,1111122 
NERRS,ioos:station:NOAA.NERRS:rkblhwq:1,2017-08-15T21:45:00Z,26.0257,-81.7332,1.06,7.4,1111122 
NERRS,ioos:station:NOAA.NERRS:rkblhwq:1,2017-08-15T22:45:00Z,26.0257,-81.7332,1.19,7.3,1111122 
NERRS,ioos:station:NOAA.NERRS:rkblhwq:1,2017-08-15T23:45:00Z,26.0257,-81.7332,1.31,7.3,1111122 
NERRS,ioos:station:NOAA.NERRS:rkblhwq:1,2017-08-16T00:45:00Z,26.0257,-81.7332,1.41,7.0,1111122 
NERRS,ioos:station:NOAA.NERRS:rkblhwq:1,2017-08-16T01:45:00Z,26.0257,-81.7332,1.45,6.3,1111122 
NERRS,ioos:station:NOAA.NERRS:rkblhwq:1,2017-08-16T02:45:00Z,26.0257,-81.7332,1.38,6.6,1111122 
NERRS,ioos:station:NOAA.NERRS:rkblhwq:1,2017-08-16T03:45:00Z,26.0257,-81.7332,1.28,6.7,1111122 
NERRS,ioos:station:NOAA.NERRS:rkblhwq:1,2017-08-16T04:45:00Z,26.0257,-81.7332,1.19,6.5,1111122 
NERRS,ioos:station:NOAA.NERRS:rkblhwq:1,2017-08-16T05:45:00Z,26.0257,-81.7332,1.13,6.2,1111122 
NERRS,ioos:station:NOAA.NERRS:rkblhwq:1,2017-08-16T06:45:00Z,26.0257,-81.7332,1.07,6.4,1111122 
NERRS,ioos:station:NOAA.NERRS:rkblhwq:1,2017-08-16T07:45:00Z,26.0257,-81.7332,1.1,4.8,1111122 
NERRS,ioos:station:NOAA.NERRS:rkblhwq:1,2017-08-16T08:45:00Z,26.0257,-81.7332,1.21,5.5,1111122 
NERRS,ioos:station:NOAA.NERRS:rkblhwq:1,2017-08-16T09:45:00Z,26.0257,-81.7332,1.33,5.3,1111122 
NERRS,ioos:station:NOAA.NERRS:rkblhwq:1,2017-08-16T10:45:00Z,26.0257,-81.7332,1.44,4.9,1111122 
NERRS,ioos:station:NOAA.NERRS:rkblhwq:1,2017-08-16T11:45:00Z,26.0257,-81.7332,1.52,4.5,1111122 
NERRS,ioos:station:NOAA.NERRS:rkblhwq:1,2017-08-16T12:45:00Z,26.0257,-81.7332,1.58,4.3,1111122 
NERRS,ioos:station:NOAA.NERRS:rkblhwq:1,2017-08-16T13:45:00Z,26.0257,-81.7332,1.56,4.1,1111122 
NERRS,ioos:station:NOAA.NERRS:rkblhwq:1,2017-08-16T14:45:00Z,26.0257,-81.7332,1.45,4.3,1111122 
NERRS,ioos:station:NOAA.NERRS:rkblhwq:1,2017-08-16T15:45:00Z,26.0257,-81.7332,1.3,4.5,1111122 
NERRS,ioos:station:NOAA.NERRS:rkblhwq:1,2017-08-16T16:45:00Z,26.0257,-81.7332,1.15,4.8,1111122 
NERRS,ioos:station:NOAA.NERRS:rkblhwq:1,2017-08-16T18:45:00Z,26.0257,-81.7332,0.86,6.8,1111122 
NERRS,ioos:station:NOAA.NERRS:rkblhwq:1,2017-08-16T19:45:00Z,26.0257,-81.7332,0.75,7.1,1111122 
NERRS,ioos:station:NOAA.NERRS:rkblhwq:1,2017-08-16T20:45:00Z,26.0257,-81.7332,0.71,4.5,1111122 
NERRS,ioos:station:NOAA.NERRS:rkblhwq:1,2017-08-16T21:45:00Z,26.0257,-81.7332,0.8,6.3,1111122 
NERRS,ioos:station:NOAA.NERRS:rkblhwq:1,2017-08-17T03:45:00Z,26.0257,-81.7332,1.41,2.2,1111122 
NERRS,ioos:station:NOAA.NERRS:rkblhwq:1,2017-08-17T04:45:00Z,26.0257,-81.7332,1.33,5.6,1111122 
NERRS,ioos:station:NOAA.NERRS:rkblhwq:1,2017-08-17T05:45:00Z,26.0257,-81.7332,1.24,5.3,1111122 
NERRS,ioos:station:NOAA.NERRS:rkblhwq:1,2017-08-17T06:45:00Z,26.0257,-81.7332,1.16,5.2,1111122 
NERRS,ioos:station:NOAA.NERRS:rkblhwq:1,2017-08-17T07:45:00Z,26.0257,-81.7332,1.1,4.6,1111122 
NERRS,ioos:station:NOAA.NERRS:rkblhwq:1,2017-08-17T08:45:00Z,26.0257,-81.7332,1.12,2.7,1111122 
NERRS,ioos:station:NOAA.NERRS:rkblhwq:1,2017-08-17T09:45:00Z,26.0257,-81.7332,1.22,4.3,1111122 
NERRS,ioos:station:NOAA.NERRS:rkblhwq:1,2017-08-17T10:45:00Z,26.0257,-81.7332,1.35,4.5,1111122 
NERRS,ioos:station:NOAA.NERRS:rkblhwq:1,2017-08-17T11:45:00Z,26.0257,-81.7332,1.46,4.1,1111122 
NERRS,ioos:station:NOAA.NERRS:rkblhwq:1,2017-08-17T12:45:00Z,26.0257,-81.7332,1.56,4.0,1111122 
NERRS,ioos:station:NOAA.NERRS:rkblhwq:1,2017-08-17T13:45:00Z,26.0257,-81.7332,1.62,3.8,1111122 
NERRS,ioos:station:NOAA.NERRS:rkblhwq:1,2017-08-17T14:45:00Z,26.0257,-81.7332,1.61,3.3,1111122 
NERRS,ioos:station:NOAA.NERRS:rkblhwq:1,2017-08-17T15:45:00Z,26.0257,-81.7332,1.51,4.3,1111122 
NERRS,ioos:station:NOAA.NERRS:rkblhwq:1,2017-08-17T16:45:00Z,26.0257,-81.7332,1.36,4.5,1111122 
NERRS,ioos:station:NOAA.NERRS:rkblhwq:1,2017-08-17T17:45:00Z,26.0257,-81.7332,1.2,4.8,1111122 
NERRS,ioos:station:NOAA.NERRS:rkblhwq:1,2017-08-17T18:45:00Z,26.0257,-81.7332,1.04,5.7,1111122 
NERRS,ioos:station:NOAA.NERRS:rkblhwq:1,2017-08-17T19:45:00Z,26.0257,-81.7332,0.88,6.4,1111122 
NERRS,ioos:station:NOAA.NERRS:rkblhwq:1,2017-08-17T20:45:00Z,26.0257,-81.7332,0.75,6.8,1111122 
NERRS,ioos:station:NOAA.NERRS:rkblhwq:1,2017-08-17T21:45:00Z,26.0257,-81.7332,0.69,6.3,1111122 
NERRS,ioos:station:NOAA.NERRS:rkblhwq:1,2017-08-17T23:45:00Z,26.0257,-81.7332,0.9,5.7,1111122 
NERRS,ioos:station:NOAA.NERRS:rkblhwq:1,2017-08-18T00:45:00Z,26.0257,-81.7332,1.04,5.9,1111122 
NERRS,ioos:station:NOAA.NERRS:rkblhwq:1,2017-08-18T01:45:00Z,26.0257,-81.7332,1.19,5.6,1111122 
NERRS,ioos:station:NOAA.NERRS:rkblhwq:1,2017-08-18T02:45:00Z,26.0257,-81.7332,1.32,5.4,1111122 
NERRS,ioos:station:NOAA.NERRS:rkblhwq:1,2017-08-18T03:45:00Z,26.0257,-81.7332,1.42,4.9,1111122 
NERRS,ioos:station:NOAA.NERRS:rkblhwq:1,2017-08-18T04:45:00Z,26.0257,-81.7332,1.44,2.6,1111122 
NERRS,ioos:station:NOAA.NERRS:rkblhwq:1,2017-08-18T05:45:00Z,26.0257,-81.7332,1.35,5.2,1111122 
NERRS,ioos:station:NOAA.NERRS:rkblhwq:1,2017-08-18T06:45:00Z,26.0257,-81.7332,1.24,4.7,1111122 
NERRS,ioos:station:NOAA.NERRS:rkblhwq:1,2017-08-18T07:45:00Z,26.0257,-81.7332,1.13,4.7,1111122 
NERRS,ioos:station:NOAA.NERRS:rkblhwq:1,2017-08-18T08:45:00Z,26.0257,-81.7332,1.08,4.2,1111122 
NERRS,ioos:station:NOAA.NERRS:rkblhwq:1,2017-08-18T09:45:00Z,26.0257,-81.7332,1.1,2.4,1111122 
NERRS,ioos:station:NOAA.NERRS:rkblhwq:1,2017-08-18T10:45:00Z,26.0257,-81.7332,1.2,3.5,1111122 
NERRS,ioos:station:NOAA.NERRS:rkblhwq:1,2017-08-18T11:45:00Z,26.0257,-81.7332,1.32,4.1,1111122 
NERRS,ioos:station:NOAA.NERRS:rkblhwq:1,2017-08-18T12:45:00Z,26.0257,-81.7332,1.43,3.6,1111122 
NERRS,ioos:station:NOAA.NERRS:rkblhwq:1,2017-08-18T13:45:00Z,26.0257,-81.7332,1.55,3.9,1111122 
NERRS,ioos:station:NOAA.NERRS:rkblhwq:1,2017-08-18T14:45:00Z,26.0257,-81.7332,1.64,3.7,1111122 
NERRS,ioos:station:NOAA.NERRS:rkblhwq:1,2017-08-18T15:45:00Z,26.0257,-81.7332,1.66,2.3,1111122 
NERRS,ioos:station:NOAA.NERRS:rkblhwq:1,2017-08-18T16:45:00Z,26.0257,-81.7332,1.57,4.5,1111122 
NERRS,ioos:station:NOAA.NERRS:rkblhwq:1,2017-08-18T17:45:00Z,26.0257,-81.7332,1.42,5.1,1111122 
NERRS,ioos:station:NOAA.NERRS:rkblhwq:1,2017-08-18T18:45:00Z,26.0257,-81.7332,1.24,5.4,1111122 
NERRS,ioos:station:NOAA.NERRS:rkblhwq:1,2017-08-18T19:45:00Z,26.0257,-81.7332,1.06,6.1,1111122 
NERRS,ioos:station:NOAA.NERRS:rkblhwq:1,2017-08-19T02:45:00Z,26.0257,-81.7332,1.17,5.2,1111122 
NERRS,ioos:station:NOAA.NERRS:rkblhwq:1,2017-08-19T03:45:00Z,26.0257,-81.7332,1.3,4.9,1111122 
NERRS,ioos:station:NOAA.NERRS:rkblhwq:1,2017-08-19T04:45:00Z,26.0257,-81.7332,1.38,4.2,1111122 
NERRS,ioos:station:NOAA.NERRS:rkblhwq:1,2017-08-19T05:45:00Z,26.0257,-81.7332,1.39,2.3,1111122 
NERRS,ioos:station:NOAA.NERRS:rkblhwq:1,2017-08-19T06:45:00Z,26.0257,-81.7332,1.38,3.2,1111122 
NERRS,ioos:station:NOAA.NERRS:rkblhwq:1,2017-08-19T07:45:00Z,26.0257,-81.7332,1.26,4.5,1111122 
NERRS,ioos:station:NOAA.NERRS:rkblhwq:1,2017-08-19T08:45:00Z,26.0257,-81.7332,1.11,4.1,1111122 
NERRS,ioos:station:NOAA.NERRS:rkblhwq:1,2017-08-19T09:45:00Z,26.0257,-81.7332,1.03,4.8,1111122 
NERRS,ioos:station:NOAA.NERRS:rkblhwq:1,2017-08-19T10:45:00Z,26.0257,-81.7332,1.04,2.5,1111122 
NERRS,ioos:station:NOAA.NERRS:rkblhwq:1,2017-08-19T11:45:00Z,26.0257,-81.7332,1.17,3.7,1111122 
NERRS,ioos:station:NOAA.NERRS:rkblhwq:1,2017-08-19T12:45:00Z,26.0257,-81.7332,1.32,3.5,1111122 
NERRS,ioos:station:NOAA.NERRS:rkblhwq:1,2017-08-19T13:45:00Z,26.0257,-81.7332,1.45,3.8,1111122 
NERRS,ioos:station:NOAA.NERRS:rkblhwq:1,2017-08-19T14:45:00Z,26.0257,-81.7332,1.58,4.1,1111122 
NERRS,ioos:station:NOAA.NERRS:rkblhwq:1,2017-08-19T15:45:00Z,26.0257,-81.7332,1.67,3.9,1111122 
NERRS,ioos:station:NOAA.NERRS:rkblhwq:1,2017-08-19T16:45:00Z,26.0257,-81.7332,1.68,2.5,1111122 
NERRS,ioos:station:NOAA.NERRS:rkblhwq:1,2017-08-19T17:45:00Z,26.0257,-81.7332,1.57,5.0,1111122 
NERRS,ioos:station:NOAA.NERRS:rkblhwq:1,2017-08-19T18:45:00Z,26.0257,-81.7332,1.41,5.5,1111122 
NERRS,ioos:station:NOAA.NERRS:rkblhwq:1,2017-08-19T19:45:00Z,26.0257,-81.7332,1.22,5.4,1111122 
NERRS,ioos:station:NOAA.NERRS:rkblhwq:1,2017-08-19T20:45:00Z,26.0257,-81.7332,1.03,5.5,1111122 
NERRS,ioos:station:NOAA.NERRS:rkblhwq:1,2017-08-19T21:45:00Z,26.0257,-81.7332,0.86,5.9,1111122 